Change the Weather History Date:

Friday, April 25, 2014

  Actual Average Record
Temperature  
Mean Temperature 50 °F 47 °F  
Max Temperature 66 °F 60 °F 78 °F (2012)
Min Temperature 34 °F 34 °F 23 °F (2002)
Degree Days  
Heating Degree Days 15 18  
Month to date heating degree days 508 538  
Since 1 July heating degree days 7305 7310  
Cooling Degree Days 0 0  
Month to date cooling degree days 0 0  
Year to date cooling degree days 0 0  
Moisture  
Dew Point 24 °F    
Average Humidity 36    
Maximum Humidity 52    
Minimum Humidity 19    
Precipitation  
Precipitation 0.00 in 0.04 in 0.46 in (1999)
Month to date precipitation 0.07 1.00  
Year to date precipitation 1.47 2.06  
Snow  
Snow 0.00 in - - ()
Month to date snowfall 0.4  
Since 1 July snowfall 53.0  
Snow Depth 0.00 in    
Sea Level Pressure  
Sea Level Pressure 29.65 in    
Wind  
Wind Speed 8 mph (WNW)    
Max Wind Speed 20 mph    
Max Gust Speed 23 mph    
Visibility 10 miles    
Events      
T = Trace of Precipitation, MM = Missing Value Source: NWS Daily Summary

Daily Weather History Graph

Daily Weather History Graph

Search for Another Location

Airport or City:

Trip Planner

Search our weather history database for the weather conditions in past years. The results will help you decide how hot, cold, wet, or windy it might be!

Date:

Astronomy

Apr. 25, 2014 Rise Set
Actual Time 6:16 AM MDT 8:08 PM MDT
Civil Twilight 5:45 AM MDT 8:38 PM MDT
Nautical Twilight 5:08 AM MDT 9:16 PM MDT
Astronomical Twilight 4:28 AM MDT 9:56 PM MDT
Moon 4:12 AM MDT (4/25) 4:28 PM MDT (4/25)
Length of Visible Light 14h 53m
Length of Day
13h 52m
Waning Crescent, 15% of the Moon is Illuminated
Apr 25
Waning Crescent
Apr 29
New
May 6
First Quarter
May 14
Full
May 21
Last Quarter

Hourly Weather History & Observations

Time (MDT) Temp. Windchill Dew Point Humidity Pressure Visibility Wind Dir Wind Speed Gust Speed Precip Events Conditions
12:53 AM 37.9 °F 32.7 °F 21.9 °F 53% 29.85 in 10.0 mi SW 6.9 mph - N/A   Clear
1:53 AM 39.9 °F 35.1 °F 21.9 °F 49% 29.81 in 10.0 mi WSW 6.9 mph - N/A   Clear
2:53 AM 37.9 °F 32.1 °F 21.9 °F 53% 29.80 in 10.0 mi SSW 8.1 mph - N/A   Clear
3:53 AM 39.0 °F 35.7 °F 21.0 °F 49% 29.77 in 10.0 mi South 4.6 mph - N/A   Clear
4:53 AM 37.0 °F 30.4 °F 21.0 °F 52% 29.80 in 10.0 mi SSW 9.2 mph - N/A   Clear
5:53 AM 39.0 °F 34.0 °F 21.9 °F 50% 29.76 in 10.0 mi NW 6.9 mph - N/A   Mostly Cloudy
6:53 AM 37.9 °F 32.7 °F 21.9 °F 53% 29.77 in 10.0 mi NNE 6.9 mph - N/A   Overcast
7:53 AM 39.9 °F 33.9 °F 23.0 °F 51% 29.77 in 10.0 mi NNE 9.2 mph - N/A   Mostly Cloudy
8:53 AM 44.1 °F 42.5 °F 23.0 °F 43% 29.78 in 10.0 mi Variable 3.5 mph - N/A   Clear
9:53 AM 46.9 °F - 24.1 °F 41% 29.77 in 10.0 mi East 5.8 mph - N/A   Clear
10:53 AM 53.1 °F - 23.0 °F 31% 29.73 in 10.0 mi ENE 5.8 mph - N/A   Clear
11:53 AM 55.9 °F - 23.0 °F 28% 29.70 in 10.0 mi North - - N/A   Partly Cloudy
12:53 PM 59.0 °F - 23.0 °F 25% 29.65 in 10.0 mi Variable 4.6 mph - N/A   Clear
1:53 PM 62.1 °F - 21.9 °F 21% 29.61 in 10.0 mi North 4.6 mph - N/A   Clear
2:53 PM 64.0 °F - 21.9 °F 20% 29.59 in 10.0 mi NNE 5.8 mph - N/A   Clear
3:53 PM 63.0 °F - 23.0 °F 22% 29.57 in 10.0 mi North - - N/A   Clear
4:53 PM 64.0 °F - 23.0 °F 21% 29.53 in 10.0 mi SW 10.4 mph - N/A   Partly Cloudy
5:53 PM 61.0 °F - 23.0 °F 23% 29.52 in 10.0 mi SW 15.0 mph - N/A   Clear
6:53 PM 60.1 °F - 26.1 °F 27% 29.51 in 10.0 mi WSW 5.8 mph - N/A   Clear
7:53 PM 57.0 °F - 25.0 °F 29% 29.50 in 10.0 mi NW 11.5 mph - N/A   Clear
8:53 PM 53.1 °F - 30.0 °F 41% 29.50 in 10.0 mi NNW 10.4 mph - N/A   Clear
9:53 PM 50.0 °F - 27.0 °F 41% 29.49 in 10.0 mi NW 10.4 mph - N/A   Clear
10:53 PM 48.9 °F - 28.9 °F 46% 29.47 in 10.0 mi WNW 13.8 mph - N/A   Partly Cloudy
11:53 PM 48.9 °F - 30.9 °F 50% 29.46 in 10.0 mi WSW 12.7 mph - N/A   Overcast